Regional Weather Roundup
Issued by NWS San Angelo, TX

Home | Current Version | Previous Version | Text Only | Print | Product List | Glossary On
Versions: 1 2 3 4 5 6 7 8 9 10 11 12 13 14 15 16 17 18 19 20 21 22 23 24 25 26 27 28 29 30 31 32 33 34 35 36 37 38 39 40 41 42 43 44 45 46 47 48 49 50
000
ASUS44 KSJT 291711
RWRSJT
WEST CENTRAL TEXAS REGIONAL WEATHER ROUNDUP
NATIONAL WEATHER SERVICE SAN ANGELO TX
1200 PM CDT SUN MAY 29 2016

NOTE: "FAIR" INDICATES FEW OR NO CLOUDS BELOW 12,000 FEET WITH NO
SIGNIFICANT WEATHER AND/OR OBSTRUCTIONS TO VISIBILITY.

TXZ049-054-064>066-071>073-076>078-098-099-113-114-127-128-139-140-
154-155-168>170-291800
...LOCATIONS ACROSS WEST CENTRAL TEXAS...

CITY           SKY/WX    TMP DP  RH WIND       PRES   REMARKS
SAN ANGELO     MOSUNNY   81  63  54 S15G23    30.12S
ABILENE        SUNNY     80  66  62 SW7       30.11S
DYESS AFB      SUNNY     81  64  55 S8        30.10S
JUNCTION       SUNNY     80  60  50 S12       30.13F
SWEETWATER     SUNNY     81  62  51 S17       30.16S
BROWNWOOD      MOSUNNY   81  63  54 S10       30.11S
COLEMAN        SUNNY     81  62  51 SW10      30.12S
SONORA         MOSUNNY   81  63  54 SE14      30.17S
OZONA          PTSUNNY   79  63  57 S20       30.16S
BRADY          NOT AVBL
$$

TEXAS PANHANDLE/OKLAHOMA PANHANDLE

CITY           SKY/WX    TMP DP  RH WIND       PRES   REMARKS
AMARILLO       SUNNY     79  59  50 SW17G24   30.19R
BORGER         MOSUNNY   73  59  61 N6        30.18F
CANADIAN       PTSUNNY   73  59  60 CALM      30.19S
DALHART        SUNNY     76  58  53 S15       30.19S
DUMAS          MOSUNNY   77  58  52 S10       30.20S
GUYMON         NOT AVBL
HEREFORD       MOSUNNY   80  62  54 S13G22    30.20S
PAMPA          SUNNY     77  59  53 CALM      30.19F
PERRYTON       CLOUDY    68  60  74 SW10      30.22R
$$

SOUTHERN PANHANDLE/SOUTH PLAINS/ROLLING PLAINS

CITY           SKY/WX    TMP DP  RH WIND       PRES   REMARKS
LUBBOCK        PTSUNNY   77  62  59 S15       30.17S
SNYDER           N/A     78  63  60 S13G20    30.14S
CHILDRESS      SUNNY     81  60  48 SE10      30.13S
SEMINOLE       PTSUNNY   76  61  60 SE13      30.17F
$$

PERMIAN BASIN

CITY           SKY/WX    TMP DP  RH WIND       PRES   REMARKS
MIDLAND        CLOUDY    79  62  56 S20       30.14F
ODESSA         CLOUDY    77  61  57 S21       30.15S
WINK           NOT AVBL
$$

FAR WEST/SOUTHWEST MOUNTAINS/TRANS PECOS

CITY           SKY/WX    TMP DP  RH WIND       PRES   REMARKS
ALPINE         PTSUNNY   75  61  60 SE8       30.24S
DRYDEN           N/A     73  67  81 E13       30.11S
EL PASO        MOSUNNY   88  12   6 N3        30.11S
FORT STOCKTON  NOT AVBL
GUADALUPE PASS NOT AVBL
MARFA          CLOUDY    76  60  57 CALM      30.22S
PECOS          CLOUDY    82  65  55 SE15G22   30.08R
$$

DALLAS/FORT WORTH METROPLEX

CITY           SKY/WX    TMP DP  RH WIND       PRES   REMARKS
DFW AIRPORT    CLOUDY    82  68  62 S5        30.08S
FTW MEACHAM    CLOUDY    84  66  54 E8        30.08S
DAL-EXECUTIVE  PTSUNNY   80  67  64 E7        30.08S
GRAND PRAIRIE  SUNNY     82  66  57 SE9       30.09S
ADDISON        PTSUNNY   79  68  69 E8        30.09S
MESQUITE       SUNNY     79  68  69 CALM      30.08F
LANCASTER      CLOUDY    77  66  69 E3        30.09S
$$

NORTH CENTRAL TEXAS

CITY           SKY/WX    TMP DP  RH WIND       PRES   REMARKS
SHRMAN/DENISON CLOUDY    73  60  65 NE7       30.14R
GAINESVILLE    CLOUDY    79  63  57 CALM      30.12S
BRIDGEPORT     SUNNY     82  65  57 S7        30.11F
DENTON         MOSUNNY   82  64  54 S5        30.09R
WAXAHACHIE     MOSUNNY   82  70  66 SE6       30.10R
GRANBURY       MOSUNNY   81  66  59 SE7       30.10S
$$

WESTERN NORTH TEXAS

CITY           SKY/WX    TMP DP  RH WIND       PRES   REMARKS
WICHITA FALLS  SUNNY     83  60  45 VRB6      30.10S
VERNON         SUNNY     82  53  36 CALM      30.13S
BRECKENRIDGE   SUNNY     80  64  56 S8        30.10S HAZE
COMANCHE       MOSUNNY   80  67  63 S7        30.11F
$$

CENTRAL AND SOUTH CENTRAL TEXAS

CITY           SKY/WX    TMP DP  RH WIND       PRES   REMARKS
AUSTIN/BERGSTM MOSUNNY   84  68  58 CALM      30.10F
WACO           PTSUNNY   84  71  65 SE10      30.08R
HILLSBORO      MOSUNNY   83  71  65 E8        30.09R
TEMPLE         CLOUDY    81  72  74 SE13      30.08F
KILLEEN-GRAY   CLOUDY    82  69  65 S9G17     30.09R
FORT HOOD      CLOUDY    81  69  67 SE12      30.07R
GEORGETOWN     SUNNY     79  70  73 SE6       30.09F
LAGO VISTA     FAIR      80  69  69 S7        30.12F
SAN MARCOS     SUNNY     84  68  58 N8        30.10F
NEW BRAUNFELS  MOSUNNY   85  70  60 N8G17     30.09R
RANDOLPH AFB   MOSUNNY   80  71  72 N9        30.11S
SAN ANTONIO    MOSUNNY   83  69  62 VRB6      30.11S
STINSON        CLOUDY    85  69  58 NW5       30.08R
PLEASANTON     NOT AVBL
LA GRANGE        N/A     83  76  79 S8        30.07F
GIDDINGS       CLOUDY    80  71  71 CALM      30.15S
$$

EAST TEXAS

CITY           SKY/WX    TMP DP  RH WIND       PRES   REMARKS
PARIS          CLOUDY    81  63  54 NE5       30.14R
CLARKSVILLE    NOT AVBL
TYLER          PTSUNNY   82  72  71 E7        30.12S
LONGVIEW       CLOUDY    84  70  62 CALM      30.11F
PALESTINE      PTSUNNY   84  73  69 E6        30.10F
NACOGDOCHES    CLOUDY    82  72  69 CALM      30.13S
$$

TEXAS HILL COUNTRY AND EDWARDS PLATEAU

CITY           SKY/WX    TMP DP  RH WIND       PRES   REMARKS
LLANO          CLOUDY    82  63  51 S6        30.10F
HORSESHOE BAY  FAIR      78  60  55 SE6G23    30.06F
KERRVILLE      CLOUDY    79  64  60 E14       30.13F
FREDERICKSBRG  CLOUDY    75  62  63 E5        30.11F
ROCKSPRINGS    MOSUNNY   79  66  65 SE13      30.17S
HONDO            N/A     81  69  67 SE14      30.13F
UVALDE         SUNNY     80  70  71 E12       30.10F
DEL RIO        CLOUDY    81  68  64 E16G28    30.08S
$$

SOUTHEAST TEXAS

CITY           SKY/WX    TMP DP  RH WIND       PRES   REMARKS
COLLEGE STN    MOSUNNY   84  72  67 E9        30.10F
CALDWELL       PTSUNNY   82  72  69 SE7       30.12F
CROCKETT       PTSUNNY   81  73  78 E5        30.12F
BRENHAM        CLOUDY    84  74  71 SE7       30.11F
HUNTSVILLE     CLOUDY    82  71  69 S7        30.13R
CONROE         PTSUNNY   84  71  65 SE7       30.12F
HOUSTON BUSH   PTSUNNY   84  70  62 E6        30.11F
HOUSTON HOBBY  CLOUDY    86  71  60 SE8       30.11F
PERLAND        CLOUDY    87  71  58 SE8       30.12F
WHARTON        CLOUDY    84  75  73 SE6       30.11F
$$

THE UPPER TEXAS COAST

CITY           SKY/WX    TMP DP  RH WIND       PRES   REMARKS
ORANGE         MOSUNNY   84  67  56 E6        30.15F
PORT ARTHUR    PTSUNNY   86  73  65 E7        30.12S
GALVESTON      CLOUDY    82  76  81 SE8       30.13F
ANGLETON       PTSUNNY   86  72  62 SE10      30.11F
BAY CITY       CLOUDY    85  75  72 SE6       30.11F
$$

TEXAS COASTAL BEND, RIO GRANDE PLAINS DEEP SOUTH TEXAS

CITY           SKY/WX    TMP DP  RH WIND       PRES   REMARKS
VICTORIA       CLOUDY    79  76  90 E16       30.05F
BEEVILLE       PTSUNNY   82  78  85 SE12G18   30.05F
ROCKPORT       PTSUNNY   86  75  69 E17       30.06F
PORT ARANSAS   MOSUNNY   85  76  74 E16       30.07F
PORT LAVACA    CLOUDY    80  76  87 E12G17    30.08F
CORPUS CHRISTI PTSUNNY   87  72  60 E22       30.06F
KINGSVILLE NAS LGT RAIN  87  77  72 E18G25    30.05F
COTULLA        SUNNY     86  70  58 E18       30.07S
LAREDO         CLOUDY    88  73  61 E15G23    30.04S
BROWNSVILLE    PTSUNNY   86  76  71 E15G24    30.04F
PORT ISABEL    CLOUDY    88  77  69 E20       30.04F
HEBBRONVILLE   PTSUNNY   85  72  63 E18       30.06F
MCALLEN        PTSUNNY   91  75  59 E15G22    30.02F
WESLACO        HAZE      91  74  58 E12G20    30.02S VSB<1/4
FALFURRIAS     PTSUNNY   87  74  66 E12G25    30.04F
EDINBURG       PTSUNNY   91  73  55 E10G18    30.04S
$$




USA.gov is the U.S. government's official web portal to all federal, state and local government web resources and services.